Location: Little Maitland River
(43.8022°N, 81.1549°W)
Time: 00:55:33
(UTC+00:00)

NOSS 3-1 (A) - Pass Details

Date: 09 December 2025
Orbit: 613 x 1593 km, 63.4° (Epoch: 10 January)

Event Time Altitude Azimuth Distance (km) Brightness Sun altitude
Exits shadow 11:03:23 16° 327° (NNW) 2,601 5.3 -18.0°
Maximum altitude 11:09:33 76° 52° (NE) 1,336 4.2 -16.9°
Drops below altitude 10° 11:18:34 10° 138° (SE) 3,629 7.4 -15.3°
Sets 11:21:47 0° 140° (SE) 4,686 8.1 -14.8°
